Pagina principale
METAR-TAF:

METAR-TAF

Aeroporti :

Windham Airport

Willimantic, Connecticut, Stati Uniti

latitudine: 41-44-31N, longitudine: 072-11-01W, altezza: 75 m

Osservazione

Il bollettino è stato emesso 8 minuti fa, alle 00:52 UTC
Vento 3 kt da sud-ovest
Temperature 7°C
Umidità 81%
Pressione 1018 hPa
Visibilità: 16.1 km
Cielo sereno

METAR: KIJD 170052Z AUTO 22003KT 10SM CLR 07/04 A3005 RMK AO2 SLP178 T00720039

Ora: 21:00 (01:00 UTC)


TAF: mancante

Osservazioni e previsioni meteorologiche di più di 4000 aeroporti (messaggi METAR e TAF).

Le stazioni disponibili sono rappresentate dai dischi gialli e rossi sulla carta.

Puntare il mouse per vedere il nome della stazione.

Clicca sopra per visualizzare le osservazioni e previsioni meteorologiche.

Per cambiare la mappa : fare clic sui pulsanti verdi con una croce nera per ingrandire, il pulsante verde con un trattino per diminuire, o sulla freccia verde per le mappe adiacenti.


METAR-TAF: